EW4438 Weather Reports


time (UTC)temp
C
wind
direction
speed
KPH
gust
KPH
rain 1hr
cm
rain 24hr
cm
rain mn
cm
humidity
%
barometer
mb
20260503195236 28 324 6.4 8.0 0.00 0.00 0.00 35 1015.7
20260503194335 28 360 4.8 6.4 0.00 0.00 0.00 37 1015.7
20260503193335 27 360 1.6 6.4 0.00 0.00 0.00 38 1016.0
20260503191435 27 360 0.0 8.0 0.00 0.00 0.00 39 1016.3
20260503190436 27 292 0.0 0.0 0.00 0.00 0.00 42 1016.3
20260503185535 26 47 1.6 4.8 0.00 0.00 0.00 41 1016.7
20260503184539 25 337 3.2 8.0 0.00 0.00 0.00 42 1016.7
20260503183537 25 360 6.4 8.0 0.00 0.00 0.00 41 1017.0
20260503181635 24 352 3.2 9.7 0.00 0.00 0.00 44 1017.0
20260503180638 24 331 4.8 8.0 0.00 0.00 0.00 45 1017.1
20260503175637 23 337 0.0 0.0 0.00 0.00 0.00 44 1017.4
20260503173637 23 293 0.0 0.0 0.00 0.00 0.00 49 1017.7
20260503172637 23 288 6.4 9.7 0.00 0.00 0.00 50 1017.7
20260503171736 22 285 0.0 8.0 0.00 0.00 0.00 52 1017.7
20260503170834 20 360 0.0 4.8 0.00 0.00 0.00 55 1018.1
20260503150235 17 112 0.0 0.0 0.00 0.00 0.00 86 1019.4
20260503140135 13 202 0.0 0.0 0.00 0.00 0.00 100 1019.8
20260503131334 11 202 0.0 0.0 0.00 0.00 0.00 100 1019.4
20260503130335 11 202 0.0 0.0 0.00 0.00 0.00 100 1019.1
20260503130236 11 202 0.0 0.0 0.00 0.00 0.00 100 1019.1
20260503080735 14 202 0.0 0.0 0.00 0.03 0.00 94 1019.8
20260503072736 14 157 0.0 0.0 0.00 0.03 0.00 94 1019.8
20260503071736 14 157 0.0 0.0 0.00 0.03 0.00 93 1019.8
20260503070737 15 157 0.0 0.0 0.00 0.03 0.00 91 1019.8
20260503053925 16 45 0.0 0.0 0.00 0.03 0.03 84 1019.1
20260503052926 17 45 0.0 0.0 0.00 0.03 0.03 84 1019.1
20260503050925 16 112 0.0 0.0 0.00 0.03 0.03 82 1019.4
20260503045927 17 112 0.0 0.0 0.00 0.03 0.03 82 1019.8
20260503044925 17 112 0.0 0.0 0.00 0.03 0.03 80 1019.4
20260503043928 17 112 0.0 0.0 0.00 0.03 0.03 80 1019.8
20260503042025 17 45 0.0 0.0 0.00 0.03 0.03 78 1019.4
20260503041028 17 112 0.0 0.0 0.00 0.03 0.03 77 1019.4
20260503040032 17 112 0.0 0.0 0.00 0.03 0.03 76 1019.4
20260503035026 18 112 0.0 0.0 0.00 0.03 0.03 75 1019.1
20260503034028 18 112 0.0 0.0 0.00 0.03 0.03 74 1019.1
20260503033124 18 112 0.0 0.0 0.00 0.03 0.03 72 1019.1
20260503031225 18 112 0.0 0.0 0.00 0.03 0.03 70 1018.7
20260503030226 19 262 3.2 9.7 0.00 0.03 0.03 69 1018.7
20260503025225 19 242 6.4 14.5 0.00 0.03 0.03 67 1018.4
20260503024226 20 231 6.4 12.9 0.00 0.03 0.03 65 1018.4
20260503023227 20 263 1.6 6.4 0.00 0.03 0.03 63 1018.4
20260503021325 22 295 8.0 25.7 0.00 0.03 0.03 56 1017.7
20260503020326 23 180 0.0 0.0 0.00 0.03 0.03 56 1017.4
20260503020225 23 180 0.0 0.0 0.00 0.03 0.03 56 1017.4
20260503015226 23 180 0.0 0.0 0.00 0.03 0.03 55 1017.0
20260503014324 23 202 0.0 0.0 0.00 0.03 0.03 56 1017.0
20260503011425 23 219 0.0 8.0 0.00 0.03 0.03 53 1017.0
20260503004427 23 180 0.0 0.0 0.00 0.03 0.03 50 1017.0
20260503004326 23 197 0.0 0.0 0.00 0.03 0.03 50 1017.0
20260503003326 23 314 0.0 0.0 0.00 0.03 0.03 51 1017.0
20260503002325 23 288 4.8 8.0 0.00 0.03 0.03 50 1017.0
20260503000226 23 282 0.0 3.2 0.00 0.03 0.03 52 1017.4
20260502235227 23 194 1.6 9.7 0.00 0.03 0.03 53 1017.4
20260502234226 22 313 4.8 8.0 0.00 0.03 0.03 53 1017.7
20260502232324 22 291 6.4 11.3 0.00 0.03 0.03 53 1017.7
20260502230344 22 315 1.6 6.4 0.00 0.03 0.03 55 1018.1
20260502225328 22 236 3.2 14.5 0.00 0.03 0.03 55 1018.4
20260502224327 22 323 1.6 9.7 0.00 0.03 0.03 56 1018.4
20260502223325 21 337 6.4 8.0 0.00 0.03 0.03 55 1018.4
20260502223227 21 337 6.4 9.7 0.00 0.03 0.03 55 1018.4
20260502222226 20 360 3.2 6.4 0.00 0.03 0.03 51 1018.7
20260502221225 22 311 1.6 6.4 0.00 0.03 0.03 48 1019.1
20260502220325 20 360 4.8 8.0 0.00 0.03 0.03 48 1019.4
20260502214325 20 11 8.0 9.7 0.00 0.03 0.03 47 1019.8
20260502213326 22 160 1.6 6.4 0.00 0.03 0.03 50 1019.8
20260502212424 21 240 4.8 8.0 0.00 0.03 0.03 48 1020.1
20260502210426 19 337 4.8 6.4 0.00 0.03 0.03 52 1020.4
20260502205443 20 292 6.4 11.3 0.00 0.03 0.03 49 1020.8
20260502203525 21 236 4.8 8.0 0.00 0.03 0.03 56 1020.8
20260502202526 18 4 3.2 6.4 0.00 0.03 0.03 57 1021.1
20260502200542 18 112 4.8 8.0 0.00 0.03 0.03 57 1021.5